Location: Catstown
(52.4386°N, 7.2633°W)
Time: 02:07:38
(UTC+00:00)

Resurs 01 Rocket - Pass Details

Date: 18 September 2020
Orbit: 633 x 645 km, 98.0° (Epoch: 30 October)

Event Time Altitude Azimuth Distance (km) Brightness Sun altitude
Exits shadow 20:56:49 43° 171° (S) 904 2.0 -21.1°
Maximum altitude 20:58:15 84° 254° (WSW) 657 1.6 -21.2°
Drops below altitude 10° 21:02:45 10° 344° (NNW) 2,055 4.9 -21.8°
Sets 21:04:58 0° 346° (NNW) 2,968 5.8 -22.1°
